STARLINK-11722 [DTC] (64128 NORAD) Tracking and Keplerian Element Data

This shows tracking and keplerian element data for the satellite.

Feedback or suggestion? Click here.




ElementValue
Catalog64128
NameSTARLINK-11722 [DTC]
Epoch Orbit3405
Epoch Day353.98151354
Epoch Year2025
RAAN94.2552
Inclination43
Eccentricity0.0001144
Argument of Perigee300.5093
Mean Anonmoly59.5662
Mean Motion15.7093432
Decay Rate0.00218227
L11 64128U 25111F 25353.98151354 .00218227 00000+0 16534-2 0 9997
L22 64128 43.0000 94.2552 0001144 300.5093 59.5662 15.70934320 34056



Live tracking and technical data element details for STARLINK-11722 [DTC] (NORAD 64128). STARLINK-11722 [DTC] can be tracked NOW for your location showing map with azimuth and elevation plus other details from your city location.







IsCatalogInMostPopularTable: catalog: 64128, numindb: 11
Update: records affected: 1



GetName: 64128 STARLINK-11722 [DTC]

Hit Count: updated at: Thu, 21 May 2026 11:41:14 GMT